Regional Weather Roundup
Issued by NWS Sioux Falls, SD

Home | Current Version | Previous Version | Graphics & Text | Print | Product List | Glossary Off
Versions: 1 2 3 4 5 6 7 8 9 10 11 12 13 14 15 16 17 18 19 20 21 22 23 24 25 26 27 28 29 30 31 32 33 34 35 36 37 38 39 40 41 42 43 44 45 46 47 48 49 50

000
ASUS43 KFSD 051302
RWRFSD

WEATHER ROUNDUP FOR SE SOUTH DAKOTA/SW MINNESOTA/NW IOWA
NATIONAL WEATHER SERVICE SIOUX FALLS SD
800 AM CDT SUN JUL 05 2015

NOTE: "FAIR" INDICATES FEW OR NO CLOUDS BELOW 12,000 FEET WITH NO
SIGNIFICANT WEATHER AND OR OBSTRUCTIONS TO VISIBILITY.


SDZ038>040-050-052>070-051400-
SOUTHEAST SOUTH DAKOTA

CITY           SKY/WX    TMP DP  RH WIND       PRES   REMARKS
BROOKINGS      PTSUNNY   66  63  88 S15G21    29.87F
CHAMBERLAIN    MOSUNNY   69  66  88 SE15      29.78S
HURON          SUNNY     72  65  78 S16G28    29.79S
MADISON        PTSUNNY   66  66 100 S18       29.89F
MITCHELL       SUNNY     72  65  78 SE14G23   29.84R
SIOUX FALLS    LGT RAIN  67  65  93 E8        29.92R FOG
WINNER         FAIR      72  64  76 SE10      29.77S
YANKTON        MOSUNNY   70  64  83 S17       29.86S
$$

MNZ071-072-080-081-089-090-097-098-051400-
SOUTHWEST MINNESOTA

CITY           SKY/WX    TMP DP  RH WIND       PRES   REMARKS
FAIRMONT       CLOUDY    66  57  72 S8        29.95S
JACKSON        CLOUDY    68  61  77 S7        29.96R
MARSHALL       CLOUDY    70  61  73 SW20      29.84F
MONTEVIDEO     CLOUDY    72  64  78 S9        29.85S
PIPESTONE      RAIN      66  64  94 S10G20    29.92F
REDWOOD FALLS  CLOUDY    70  62  76 S12       29.88F
TRACY          CLOUDY    70  63  78 S17G25    29.89F
WINDOM         CLOUDY    70  61  73 S9        29.94S
WORTHINGTON    CLOUDY    66  61  82 SW10      29.96R
$$

IAZ001>003-012>014-020>022-031-032-NEZ013-014-SDZ071-051400-
NORTHWEST IOWA

CITY           SKY/WX    TMP DP  RH WIND       PRES   REMARKS
DENISON        CLOUDY    68  63  83 S8G15     29.94S
ESTHERVILLE    CLOUDY    63  61  93 S10       29.95S
SIOUX CITY     CLOUDY    68  62  81 NW6       29.97R
SPENCER        CLOUDY    66  60  81 S8        29.95R
$$

ABBREVIATIONS USED IN REMARKS
   TC - TEMPERATURE IN CELSIUS
  WCI - WIND CHILL INDEX
   HX - HEAT INDEX
  VSB - VISIBILITY




USA.gov is the U.S. government's official web portal to all federal, state and local government web resources and services.